[[{"header":{"parameterUnit":"m.s-1","parameterCategory":1,"la1":30.2991,"la2":30.254,"lo1":-89.0895,"lo2":-89.0444,"dy":0.0017,"dx":0.0017,"nx":28,"ny":28,"refTime":"2024-07-23T21:00:00:Z","depth":0,"parameterNumber":2,"parameterNumberName":"U-component_of_WINDS"},"data":[0,0,0,0,0,0,0,0,0,0,0,0,0,0,0,0,0,0,0,0,0,0,0,0,0,0,0,0,0,0,0,0,0,0,0,0,0,0,0,0,0,0,0,0,0,0,0,0,0,0,0,0,0,0,0,0,0,0,-1.4139,-1.4139,0,-1.4151,-1.4151,-1.4151,-1.4138,-1.4137,-1.4137,-1.4136,-1.4149,-1.4149,-1.415,0,0,0,0,0,0,0,0,0,0,0,0,0,-1.4106,-1.4106,-1.4139,-1.4139,-1.4139,-1.4151,-1.4151,-1.4151,-1.4138,-1.4137,-1.4137,-1.4136,-1.4148,-1.4149,-1.415,0,0,0,0,0,0,0,0,0,0,0,0,0,-1.4119,-1.4107,-1.4139,-1.4134,-1.4134,-1.4151,-1.4151,-1.4151,-1.4138,-1.4137,-1.4137,-1.4136,-1.4148,-1.4149,-1.415,-1.4173,0,0,-1.4154,-1.4155,0,0,0,0,0,0,0,0,-1.4118,-1.412,-1.4135,-1.4135,-1.4134,-1.4142,-1.4144,-1.4159,-1.4138,-1.4137,-1.4136,-1.4136,-1.4147,-1.4148,-1.4152,-1.4173,-1.4174,-1.4154,-1.4155,-1.4155,-1.4156,0,0,0,0,0,0,0,-1.4117,-1.412,-1.4144,-1.4135,-1.4135,-1.4132,-1.4133,-1.4147,-1.4146,-1.4137,-1.4136,-1.4137,-1.4147,-1.4151,-1.4152,-1.4174,-1.4154,-1.4155,-1.4156,-1.4156,-1.4216,-1.4217,0,0,0,0,0,0,-1.4117,-1.4119,-1.4143,-1.4144,-1.4124,-1.4133,-1.4134,-1.414,-1.4146,-1.4146,-1.4138,-1.4137,-1.4149,-1.4151,-1.4153,-1.418,-1.4155,-1.4156,-1.4157,-1.4215,-1.4216,-1.4217,0,0,0,0,0,0,-1.4116,-1.4119,-1.4143,-1.4131,-1.4134,-1.4134,-1.4142,-1.4141,-1.4145,-1.4147,-1.4147,-1.4142,-1.4149,-1.4151,-1.4168,-1.418,-1.4157,-1.4158,-1.4214,-1.4215,-1.4216,-1.4235,0,0,0,0,0,0,-1.4115,-1.4119,-1.4127,-1.4132,-1.4135,-1.4158,-1.4142,-1.4142,-1.4147,-1.4146,-1.4151,-1.4151,-1.4148,-1.4167,-1.4169,-1.4182,-1.4159,-1.4213,-1.4215,-1.4216,-1.4233,-1.4236,-1.4239,0,0,0,0,0,-1.4114,-1.4132,-1.4128,-1.4131,-1.4145,-1.4159,-1.416,-1.4157,-1.4148,-1.4157,-1.4158,-1.4151,-1.4179,-1.4168,-1.4172,-1.4184,-1.4212,-1.4214,-1.4216,-1.4231,-1.4236,-1.4239,0,0,0,0,0,0,-1.4128,-1.4132,-1.4128,-1.4147,-1.4153,-1.4156,-1.4167,-1.4162,-1.417,-1.4168,-1.4164,-1.4165,-1.4183,-1.4186,-1.4174,-1.4207,-1.4194,-1.4197,-1.4205,-1.4209,-1.4212,-1.4211,-1.416,0,0,0,0,0,-1.4134,-1.4144,-1.4147,-1.4164,-1.4167,-1.4167,-1.4172,-1.417,-1.4175,-1.4177,-1.418,-1.4186,-1.4196,-1.4202,-1.4212,-1.4233,-1.4235,-1.4244,-1.4247,-1.425,-1.4252,-1.4265,-1.4269,-1.4223,-1.4223,-1.4223,0,0,-1.4145,-1.4148,-1.4155,-1.4167,-1.4171,-1.4182,-1.4169,-1.4181,-1.4189,-1.4179,-1.4196,-1.4198,-1.4204,-1.4224,-1.4233,-1.4226,-1.4265,-1.4252,-1.4254,-1.4255,-1.4267,-1.4271,-1.4275,-1.4225,-1.4224,-1.4224,0,0,-1.4171,-1.4174,-1.4189,-1.4194,-1.42,-1.42,-1.4204,-1.4209,-1.421,-1.4226,-1.4219,-1.423,-1.4247,-1.4252,-1.4257,-1.4287,-1.4281,-1.429,-1.4307,-1.4319,-1.4322,-1.4326,-1.4337,-1.4341,-1.4292,-1.4292,-1.4292,0,-1.4184,-1.42,-1.4197,-1.421,-1.4216,-1.4208,-1.4224,-1.4228,-1.4237,-1.4242,-1.4235,-1.4257,-1.4261,-1.4282,-1.429,-1.4294,-1.4298,-1.4289,-1.4322,-1.4325,-1.4328,-1.4339,-1.4343,-1.4294,-1.4293,-1.4293,-1.4293,0,-1.4216,-1.4228,-1.4239,-1.4249,-1.4256,-1.427,-1.427,-1.4277,-1.4275,-1.4275,-1.4293,-1.4297,-1.4308,-1.4313,-1.431,-1.4334,-1.433,-1.4323,-1.431,-1.4334,-1.4344,-1.4348,-1.4295,-1.4295,-1.4294,-1.4294,0,0,-1.425,-1.4259,-1.4263,-1.4268,-1.4275,-1.4284,-1.4299,-1.431,-1.4316,-1.4324,-1.4336,-1.4352,-1.4345,-1.4351,-1.4349,-1.4359,-1.4384,-1.4351,-1.4351,-1.4357,-1.4412,-1.4417,-1.4422,-1.438,-1.4381,-1.4381,-1.4411,0,-1.4276,-1.4301,-1.4299,-1.4323,-1.4334,-1.4328,-1.434,-1.4347,-1.4348,-1.4359,-1.436,-1.4372,-1.4362,-1.4366,-1.4376,-1.4378,-1.4395,-1.4376,-1.4392,-1.4392,-1.439,-1.4427,-1.4432,-1.446,-1.4415,-1.4416,-1.4416,0,-1.431,-1.4319,-1.4343,-1.435,-1.4355,-1.4366,-1.4377,-1.4387,-1.4394,-1.4395,-1.4402,-1.4398,-1.4413,-1.44,-1.4422,-1.4409,-1.4416,-1.4418,-1.4419,-1.442,-1.4405,-1.4429,-1.4469,-1.4473,-1.4422,-1.4422,-1.4421,0,-1.4332,-1.4351,-1.4368,-1.4372,-1.4381,-1.4389,-1.4393,-1.44,-1.4407,-1.4416,-1.4421,-1.4431,-1.4437,-1.4446,-1.4446,-1.4436,-1.4468,-1.4455,-1.4469,-1.4469,-1.4475,-1.4475,-1.4517,-1.448,-1.448,-1.448,-1.448,0,-1.4362,-1.4377,-1.4378,-1.4389,-1.4407,-1.4405,-1.4423,-1.4426,-1.4432,-1.4444,-1.4439,-1.445,-1.4449,-1.446,-1.4461,-1.4479,-1.4481,-1.4482,-1.4482,-1.4483,-1.4483,-1.4486,-1.4485,-1.4481,-1.4481,-1.448,-1.448,0,-1.4389,-1.4391,-1.4409,-1.4416,-1.4419,-1.4431,-1.4437,-1.4448,-1.445,-1.4465,-1.4468,-1.4471,-1.4484,-1.4485,-1.45,-1.45,-1.4522,-1.452,-1.452,-1.4519,-1.4534,-1.4533,-1.458,-1.4586,-1.4545,-1.4545,-1.4546,0,-1.4408,-1.442,-1.4428,-1.4436,-1.444,-1.4453,-1.446,-1.446,-1.4468,-1.4478,-1.4487,-1.45,-1.4511,-1.4532,-1.4536,-1.4548,-1.4546,-1.4562,-1.4548,-1.4548,-1.4546,-1.4546,-1.4547,-1.4564,-1.4565,-1.4565,-1.4565,0,-1.444,-1.4441,-1.4452,-1.4464,-1.4473,-1.4482,-1.449,-1.4497,-1.4498,-1.4507,-1.4521,-1.4529,-1.4545,-1.4558,-1.457,-1.4575,-1.4571,-1.457,-1.4574,-1.4575,-1.4574,-1.4575,-1.4527,-1.4569,-1.4568,-1.4568,-1.4568,-1.4568,-1.4464,-1.4475,-1.4483,-1.4496,-1.4502,-1.4511,-1.4521,-1.4525,-1.4536,-1.455,-1.4549,-1.4564,-1.4573,-1.4589,-1.4594,-1.4607,-1.4601,-1.4607,-1.4608,-1.461,-1.4611,-1.4573,-1.4609,-1.4609,-1.4609,-1.4609,-1.4609,0,-1.4497,-1.4502,-1.4514,-1.4526,-1.4537,-1.4532,-1.4542,-1.4551,-1.4565,-1.4573,-1.4584,-1.46,-1.4613,-1.4619,-1.4632,-1.4641,-1.4639,-1.4644,-1.4643,-1.4645,-1.4615,-1.4611,-1.4645,-1.4645,-1.4645,-1.4645,-1.4645,-1.4645,-1.4515,-1.4533,-1.4535,-1.4557,-1.4562,-1.4577,-1.4583,-1.4591,-1.4598,-1.4617,-1.4628,-1.4631,-1.4639,-1.4653,-1.4665,-1.4666,-1.4671,-1.4677,-1.4678,-1.465,-1.4646,-1.4643,-1.4638,-1.4678,-1.4678,-1.4706,-1.4706,-1.4706]},{"header":{"parameterUnit":"m.s-1","parameterCategory":1,"la1":30.2991,"la2":30.254,"lo1":-89.0895,"lo2":-89.0444,"dy":0.0017,"dx":0.0017,"nx":28,"ny":28,"refTime":"2024-07-23T21:00:00:Z","depth":0,"parameterNumber":3,"parameterNumberName":"V-component_of_WINDS"},"data":[0,0,0,0,0,0,0,0,0,0,0,0,0,0,0,0,0,0,0,0,0,0,0,0,0,0,0,0,0,0,0,0,0,0,0,0,0,0,0,0,0,0,0,0,0,0,0,0,0,0,0,0,0,0,0,0,0,0,2.1345,2.1344,0,2.1295,2.1295,2.1294,2.129,2.1291,2.1291,2.1292,2.1237,2.1235,2.1233,0,0,0,0,0,0,0,0,0,0,0,0,0,2.1431,2.143,2.1345,2.1344,2.1343,2.1295,2.1295,2.1294,2.129,2.1291,2.1291,2.1292,2.1238,2.1235,2.1233,0,0,0,0,0,0,0,0,0,0,0,0,0,2.1389,2.1429,2.1345,2.1336,2.1334,2.1296,2.1295,2.1294,2.129,2.1291,2.1291,2.1292,2.1239,2.1236,2.1233,2.1199,0,0,2.1224,2.1223,0,0,0,0,0,0,0,0,2.1391,2.1386,2.1338,2.1336,2.1335,2.13,2.1305,2.1262,2.129,2.1307,2.1292,2.1293,2.1257,2.1253,2.1241,2.1196,2.1194,2.1224,2.1222,2.1221,2.122,0,0,0,0,0,0,0,2.1394,2.1388,2.1325,2.1337,2.1335,2.1333,2.1328,2.1297,2.1278,2.1305,2.1305,2.1299,2.1256,2.1244,2.124,2.1193,2.1224,2.1221,2.1219,2.1218,2.1117,2.1116,0,0,0,0,0,0,2.1399,2.139,2.1327,2.1324,2.1366,2.1331,2.1325,2.131,2.1278,2.1274,2.1299,2.1299,2.1249,2.1244,2.1238,2.1196,2.1221,2.1218,2.1216,2.1118,2.1116,2.1115,0,0,0,0,0,0,2.1401,2.1394,2.1329,2.1357,2.1348,2.1328,2.1312,2.1309,2.1297,2.1273,2.1269,2.129,2.1249,2.1242,2.1209,2.1194,2.1217,2.1214,2.1119,2.1117,2.1116,2.1111,0,0,0,0,0,0,2.1404,2.1395,2.1382,2.1357,2.1347,2.1301,2.1311,2.1307,2.1292,2.1292,2.1264,2.126,2.1249,2.1213,2.1206,2.119,2.1212,2.112,2.1118,2.1116,2.1113,2.111,2.1107,0,0,0,0,0,2.1407,2.1382,2.1381,2.1374,2.1331,2.13,2.1294,2.1284,2.1291,2.1278,2.1263,2.1261,2.1197,2.121,2.1201,2.1185,2.1121,2.1119,2.1117,2.1114,2.111,2.1107,0,0,0,0,0,0,2.1404,2.1378,2.1378,2.1344,2.1324,2.1299,2.1282,2.128,2.1257,2.1258,2.1245,2.1239,2.1205,2.1192,2.1206,2.115,2.1159,2.1156,2.116,2.1157,2.1154,2.1158,2.1209,0,0,0,0,0,2.14,2.1378,2.1356,2.1328,2.1319,2.1302,2.1288,2.1282,2.1261,2.1252,2.1235,2.1213,2.1188,2.1172,2.1147,2.1111,2.1104,2.1095,2.1093,2.1091,2.1087,2.1067,2.1063,2.1108,2.1108,2.1109,0,0,2.1391,2.1374,2.136,2.1327,2.1312,2.1288,2.1295,2.127,2.1252,2.1248,2.1215,2.1202,2.1177,2.1142,2.1125,2.1129,2.1073,2.1088,2.1087,2.1084,2.1064,2.106,2.1056,2.1107,2.1107,2.1108,0,0,2.1361,2.1347,2.1322,2.1306,2.1283,2.1272,2.1267,2.1242,2.1233,2.1201,2.1197,2.1175,2.1132,2.1115,2.11,2.1065,2.1063,2.1058,2.1044,2.1024,2.102,2.1017,2.1004,2.1,2.1054,2.1054,2.1054,0,2.1352,2.1318,2.1309,2.1284,2.127,2.1266,2.1241,2.1225,2.1195,2.1184,2.1189,2.1136,2.1119,2.108,2.1071,2.106,2.1052,2.106,2.1022,2.1019,2.1015,2.1003,2.0998,2.1054,2.1054,2.1054,2.1054,0,2.1307,2.1284,2.1266,2.1239,2.1222,2.1197,2.1183,2.1167,2.1163,2.1151,2.1118,2.1097,2.1069,2.1059,2.1054,2.1019,2.1022,2.1025,2.1034,2.1011,2.0999,2.0994,2.1053,2.1053,2.1053,2.1054,0,0,2.1274,2.1243,2.1237,2.1224,2.1198,2.1179,2.1154,2.1127,2.1114,2.1093,2.107,2.1035,2.1038,2.1021,2.1014,2.0996,2.097,2.1001,2.1,2.0996,2.093,2.0928,2.0923,2.0968,2.0967,2.0967,2.0932,0,2.1242,2.1198,2.1189,2.1151,2.1128,2.1125,2.1103,2.1084,2.1073,2.1051,2.1038,2.1013,2.1019,2.1009,2.0992,2.0977,2.0956,2.0979,2.0946,2.0945,2.0952,2.0916,2.0914,2.0882,2.0927,2.0926,2.0926,0,2.1198,2.1178,2.1137,2.1115,2.1105,2.1085,2.1061,2.1041,2.1019,2.1012,2.0994,2.0989,2.0961,2.0973,2.0934,2.095,2.0936,2.0927,2.0925,2.0921,2.0934,2.0911,2.0872,2.0867,2.0918,2.0919,2.092,0,2.1178,2.114,2.1111,2.11,2.1074,2.106,2.1048,2.1027,2.1012,2.099,2.098,2.0955,2.0941,2.0921,2.0908,2.0918,2.0871,2.0881,2.0863,2.0863,2.0853,2.0854,2.081,2.0845,2.0845,2.0845,2.0845,0,2.1142,2.1117,2.1101,2.1083,2.1055,2.1046,2.1018,2.1006,2.0988,2.0966,2.0962,2.0942,2.0927,2.0905,2.0895,2.0864,2.0858,2.0851,2.0848,2.0851,2.0852,2.0841,2.0843,2.0844,2.0844,2.0844,2.0844,0,2.1114,2.1103,2.1071,2.1049,2.1043,2.1023,2.1003,2.0985,2.0975,2.0948,2.0941,2.0923,2.0897,2.0883,2.0849,2.0843,2.0809,2.0807,2.0816,2.0815,2.0798,2.08,2.0747,2.0739,2.0779,2.0778,2.0778,0,2.1092,2.1073,2.1049,2.1036,2.1024,2.1002,2.0987,2.0976,2.096,2.0935,2.092,2.0894,2.0872,2.083,2.0813,2.0788,2.0786,2.0769,2.0782,2.0785,2.0785,2.0786,2.0784,2.0766,2.0766,2.0766,2.0765,0,2.1054,2.1049,2.1029,2.1006,2.0989,2.097,2.0951,2.094,2.0926,2.0909,2.0882,2.0866,2.0833,2.0806,2.078,2.0766,2.0763,2.0762,2.0756,2.0758,2.0764,2.0761,2.081,2.0763,2.0763,2.0763,2.0763,2.0763,2.1028,2.1011,2.0992,2.0969,2.0954,2.0937,2.092,2.0907,2.0885,2.0858,2.0853,2.0825,2.0804,2.0768,2.0754,2.0732,2.0735,2.0727,2.0725,2.0723,2.0722,2.0768,2.0727,2.0727,2.0727,2.0727,2.0727,0,2.0989,2.0977,2.0956,2.0931,2.0913,2.0914,2.0893,2.0877,2.0854,2.0835,2.0814,2.0784,2.0759,2.0741,2.0715,2.07,2.0698,2.0693,2.0694,2.0691,2.0721,2.0728,2.0696,2.0696,2.0696,2.0696,2.0696,2.0696,2.0967,2.0939,2.0932,2.0896,2.0884,2.0858,2.0846,2.083,2.0815,2.0782,2.0762,2.0751,2.0732,2.0705,2.0681,2.0677,2.0667,2.0663,2.0658,2.0686,2.0689,2.0692,2.0699,2.0661,2.0661,2.063,2.0629,2.0629]}]]